Miscellaneous Local Product
Issued by NWS North Platte, NE

Home | Current Version | Previous Version | Text Only | Print | Product List | Glossary On
Versions: 1 2 3 4 5 6 7 8 9 10 11 12 13 14 15 16 17 18 19 20 21 22 23 24 25 26 27 28 29 30 31 32 33 34 35 36 37 38 39 40 41 42 43 44 45 46 47 48 49 50
176
AXUS43 KLBF 201710
MISLBF


WESTERN AND NORTH CENTRAL NEBRASKA HOURLY WEATHER ROUNDUP
NATIONAL WEATHER SERVICE NORTH PLATTE NE
1200 PM CDT SUN AUG 20 2017

NOTE: "FAIR" INDICATES FEW OR NO CLOUDS BELOW 12,000 FEET WITH NO
SIGNIFICANT WEATHER AND/OR OBSTRUCTIONS TO VISIBILITY.

NOTE: STATIONS NOT REPORTING VARIABLES SUCH AS SKY/WEATHER OR
PRESSURE ARE PROVIDED BY RAWS AND APRS NETWORKS AND ARE NOT UNDER
NATIONAL WEATHER SERVICE QUALITY CONTROL.

...OBSERVATIONS IN AND NEAR THE EASTERN PANHANDLE OF NEBRASKA...

CITY           SKY/WX    TMP DP  RH WIND       PRES   REMARKS
PINE RIDGE     SUNNY     78  53  41 E12       30.09S
GORDON         FAIR      78  52  39 E10G20    30.09R
CHADRON        SUNNY     75  51  43 NE8       30.09F
ALLIANCE       CLOUDY    76  52  43 E17       30.08F
SIDNEY         SUNNY     77  61  57 NE14G23   30.08F
$$

...OBSERVATIONS IN NORTHERN NEBRASKA AND FAR SOUTHERN SOUTH DAKOTA...

CITY           SKY/WX    TMP DP  RH WIND       PRES   REMARKS
WINNER         FAIR      78  60  53 NE16      30.01R
VALENTINE      SUNNY     82  53  36 E21       30.01R
THEDFORD       SUNNY     80  64  56 NE18      30.01S
AINSWORTH      SUNNY     79  59  50 E16G22    29.99S
O`NEILL        SUNNY     79  64  60 SE7       29.98F
ORD            MOSUNNY   76  64  66 SE9       29.96R
BROKEN BOW     SUNNY     78  66  66 NE8       29.97R
VALENTINE NWR    N/A     78  57  48 E16G26      N/A
HALSEY           N/A     77  62  60 NE7         N/A
BUTTE            N/A     73  66  78 NE14        N/A
CHAMBERS         N/A     81  68  63 SE3         N/A
EWING            N/A     81  67  62 SE5         N/A
$$

...OBSERVATIONS IN SOUTHWEST NEBRASKA AND FAR NORTHEAST COLORADO...

CITY           SKY/WX    TMP DP  RH WIND       PRES   REMARKS
HOLYOKE        FAIR      84  63  48 N8        30.02R
IMPERIAL       SUNNY     81  62  52 NE9       29.98S
OGALLALA       SUNNY     83  63  51 NE13      29.99R
NORTH PLATTE   SUNNY     82  67  60 NE10      29.96R
MCCOOK         SUNNY     83  59  44 SE6       29.93S
LEXINGTON      SUNNY     80  69  69 E3        29.95R
STAPLETON        N/A     77  65  65 NE3G13      N/A
GOTHENBURG       N/A     75  63  66 E5          N/A
CALLAWAY         N/A     75  68  79 NE7         N/A
$$

...OBSERVATIONS IN CENTRAL LINCOLN COUNTY AREA...

CITY           SKY/WX    TMP DP  RH WIND       PRES   REMARKS
N.P. AIRPORT   SUNNY     82  67  60 NE10      29.96R
N.P. DOWNTOWN    N/A     80  67  63 E10         N/A
N.P. SOUTHEAST   N/A     81  67  62 NE3         N/A
N.P. HILLCREST   N/A     80  67  63 E14G21      N/A
$$

...SOME OBSERVATIONS FROM AROUND THE REGION...

CITY           SKY/WX    TMP DP  RH WIND       PRES   REMARKS
DENVER         MOSUNNY   84  33  16 NE14G20   30.14R
LIMON          SUNNY     83  42  23 N16       30.13R
ASPEN          SUNNY     74  35  24 N6        30.31F
LARAMIE        SUNNY     76  23  14 SE8       30.26S
CASPER         SUNNY     71  36  27 VRB3      30.13F
CHEYENNE       SUNNY     72  40  31 N16       30.20S
SCOTTSBLUFF    CLOUDY    78  59  51 E12G18    30.09S
GRAND ISLAND   SUNNY     79  70  74 SE10      29.95R
OMAHA          CLOUDY    73  66  78 NW7       29.97F
SIOUX FALLS    PTSUNNY   79  68  69 NE7       29.98R
PIERRE         SUNNY     77  53  43 N9        30.02R
RAPID CITY     SUNNY     71  47  42 NW3       30.11S
BISMARCK       CLOUDY    68  47  46 N8        30.08S
KANSAS CITY    MOSUNNY   81  69  67 SE15      30.01S
HILL CITY      SUNNY     91  65  41 S7        29.93R HX  93
WICHITA        PTSUNNY   91  70  49 S14       29.96F HX  96
DODGE CITY     SUNNY     90  63  40 SW15      29.98S HX  91
OKLAHOMA CITY  CLOUDY    88  70  55 S13       30.01F HX  93
DALLAS         MOSUNNY   93  69  45 VRB6      30.02S HX  98
AMARILLO       MOSUNNY   82  63  52 S16       30.09S
$$




USA.gov is the U.S. government's official web portal to all federal, state and local government web resources and services.